Other Public Products
Issued by NWS Charleston, SC

Current Version | Previous Version | Text Only | Print | Product List | Glossary Off
Versions: 1 2 3 4 5 6 7 8 9 10 11 12 13 14 15 16 17 18 19 20 21 22 23 24 25 26 27 28 29 30 31 32 33 34 35 36 37 38 39 40 41 42 43 44 45 46 47 48 49 50
000 FPUS82 KCHS 201412 OPUCHS TEST...KCHS/KSAV Gateway Observations...TEST National Weather Service Charleston SC 1000 AM EDT THU JUL 20 2017 NOTE: "fair" indicates few or no clouds below 12,000 feet with no significant weather and/or obstructions to visibility. SCZ050-WAZ558-NCZ071-TXZ119-213-PAZ071-DCZ001-FLZ074-172-MI076- NYZ176-178-MAZ016-IL014-TNZ027-NJZ106-GAZ044-MD014-201500- ...Gateway Observations for Charleston International... CITY SKY/WX TMP DP RH WIND PRES REMARKS Chas Airport MOSUNNY 83 74 74 W3 30.09S Seattle PTSUNNY 61 53 75 S16G23 30.10R Charlotte MOSUNNY 83 73 72 CALM 30.10F Dallas DFW MOSUNNY 87 74 64 SW13 30.11R HX 95 Dallas Love MOSUNNY 86 73 65 SW8 30.13R HX 93 Philladelphia PTSUNNY 86 72 62 S7 30.00S HX 92 Wash National PTSUNNY 91 73 55 N7 30.03S HX 99 Baltimore PTSUNNY 90 73 57 W6 30.01F HX 98 Miami PTSUNNY 87 75 67 CALM 30.11R HX 96 Detroit CLOUDY 81 69 67 W13 30.00R Newark PTSUNNY 88 70 55 W6 29.98S HX 93 Laguardia PTSUNNY 86 72 62 CALM 29.97S HX 92 J F K PTSUNNY 87 74 64 SW5 29.98F HX 95 Boston Logan PTSUNNY 86 67 52 W8 29.94F Ft. Lauderdale PTSUNNY 86 78 77 CALM 30.10R HX 98 Chicago O`Hare CLOUDY 70 67 90 S14 30.02R Chicago Midway CLOUDY 71 70 96 S13 30.05S Houston Bush MOSUNNY 85 77 77 W6 30.14R HX 95 Houston Hobby MOSUNNY 87 77 72 W6 30.13S HX 99 Nashville MOSUNNY 87 73 62 W5 30.16R HX 94 Atlanta MOSUNNY 84 71 65 NW7 30.13S $$ GAZ044-118-TXZ119-213-NCZ071-DCZ001-MDZ014-506-PAZ021-071-NJZ106- NYZ176-178-MAZ106-OHZ011-021-055-MIZ076-KYZ091-ILZ014-INZ047- MNZ060-ONZ431-201500- ...Gateway Observations for Savannah International... CITY SKY/WX TMP DP RH WIND PRES REMARKS Savannah Arpt MOSUNNY 84 76 76 VRB5 30.10R HX 93 Atlanta MOSUNNY 84 71 65 NW7 30.13S Charlotte MOSUNNY 83 73 72 CALM 30.10F Dallas DFW MOSUNNY 87 74 64 SW13 30.11R HX 95 Houston Bush MOSUNNY 85 77 77 W6 30.14R HX 95 Wash National PTSUNNY 91 73 55 N7 30.03S HX 99 Wash Dulles PTSUNNY 87 70 56 NW8 30.05R HX 92 Baltimore PTSUNNY 90 73 57 W6 30.01F HX 98 Philadelphia PTSUNNY 86 72 62 S7 30.00S HX 92 Newark PTSUNNY 88 70 55 W6 29.98S HX 93 Laguardia PTSUNNY 86 72 62 CALM 29.97S HX 92 J F K PTSUNNY 87 74 64 SW5 29.98F HX 95 Boston PTSUNNY 86 67 52 W8 29.94F Pittsburg CLOUDY 80 71 74 W7 30.09S Akron PTSUNNY 82 70 66 SW12 30.06F Cleveland PTSUNNY 84 73 69 SW10 30.03F HX 90 Cincinnati CLOUDY 78 73 84 SW3 30.14R Columbus CLOUDY 77 73 85 SW6 30.10S Detroit CLOUDY 81 69 67 W13 30.00R Chicago O`Hare CLOUDY 70 67 90 S14 30.02R Minneapolis CLOUDY 74 67 78 N3 30.01R Indianapolis CLOUDY 78 72 81 SW8 30.10R Toronto Canada CLOUDY 73 55 53 S6 29.95F $$

USA.gov is the U.S. government's official web portal to all federal, state and local government web resources and services.